This demonstration page uses our WeatherBlox Daily Observations layout. Learn more.

Hourly Observations for July 30, 2019

Temp ( °F °C ) Dew Point ( °F °C ) Humidity (%) Winds ( mph kmh ) Pressure ( in mb ) Visibility ( mi km ) Precip ( " mm )
12:15 am 00:15 Clear 73 23 70 21 89 89 SW 5 7 30.03 1017 10 16.09344 0 0
12:35 am 00:35 Clear 77 25 70 21 79 79 S 5 7 30.03 1017 10 16.09344 0 0
12:55 am 00:55 Clear 75 24 70 21 83 83 S 6 9 30 1016 10 16.09344 0 0
1:15 am 01:15 Clear 73 23 70 21 89 89 SSW 3 6 30 1016 10 16.09344 0 0
1:35 am 01:35 Clear 73 23 70 21 89 89 SW 5 7 30 1016 10 16.09344 0 0
1:55 am 01:55 Clear 72 22 70 21 94 94 SSW 5 7 30 1016 10 16.09344 0 0
2:15 am 02:15 Clear 72 22 70 21 94 94 WSW 5 7 30 1016 10 16.09344 0 0
2:35 am 02:35 Clear 72 22 70 21 94 94 W 3 6 30 1016 10 16.09344 0 0
2:55 am 02:55 Clear 72 22 68 20 88 88 W 3 6 30 1016 10 16.09344 0 0
3:15 am 03:15 Clear 73 23 68 20 83 83 Calm 30 1016 10 16.09344 0 0
3:35 am 03:35 Clear 73 23 70 21 89 89 Calm 30 1016 10 16.09344 0 0
3:55 am 03:55 Clear 72 22 68 20 88 88 S 3 6 30 1016 10 16.09344 0 0
4:15 am 04:15 Clear 72 22 70 21 94 94 S 3 6 30 1016 10 16.09344 0 0
4:35 am 04:35 Clear 72 22 70 21 94 94 Calm 30 1016 10 16.09344 0 0
4:55 am 04:55 Clear 72 22 70 21 94 94 SSE 3 6 30 1016 10 16.09344 0 0
5:15 am 05:15 Clear 70 21 68 20 94 94 Calm 30.03 1017 10 16.09344 0 0
5:35 am 05:35 Clear 70 21 68 20 94 94 Calm 30.03 1017 10 16.09344 0 0
5:55 am 05:55 Clear 68 20 68 20 100 100 Calm 30.03 1017 10 16.09344 0 0
6:15 am 06:15 Sunny 70 21 68 20 94 94 Calm 30.03 1017 10 16.09344 0 0
6:35 am 06:35 Sunny 70 21 68 20 94 94 S 3 6 30.03 1017 10 16.09344 0 0
6:55 am 06:55 Sunny 70 21 70 21 100 100 Calm 30.03 1017 10 16.09344 0 0
7:15 am 07:15 Sunny 70 21 70 21 100 100 Calm 30.03 1017 10 16.09344 0 0
7:35 am 07:35 Sunny 72 22 70 21 94 94 Calm 30.03 1017 10 16.09344 0 0
7:55 am 07:55 Sunny 73 23 70 21 89 89 Calm 30.03 1017 10 16.09344 0 0
8:15 am 08:15 Sunny 73 23 70 21 89 89 Calm 30.03 1017 10 16.09344 0 0
8:35 am 08:35 Sunny 77 25 70 21 79 79 Calm 30.03 1017 10 16.09344 0 0
8:55 am 08:55 Sunny 79 26 72 22 79 79 Calm 30.06 1018 10 16.09344 0 0
9:15 am 09:15 Sunny 79 26 72 22 79 79 Calm 30.06 1018 10 16.09344 0 0
9:35 am 09:35 Sunny 81 27 72 22 74 74 WSW 3 6 30.06 1018 10 16.09344 0 0
9:55 am 09:55 Sunny 82 28 72 22 70 70 S 3 6 30.06 1018 10 16.09344 0 0
10:15 am 10:15 Sunny 82 28 72 22 70 70 SSW 3 6 30.03 1017 10 16.09344 0 0
10:35 am 10:35 Sunny 84 29 72 22 66 66 Calm 30.03 1017 10 16.09344 0 0
10:55 am 10:55 Sunny 86 30 72 22 62 62 SW 3 6 30.03 1017 10 16.09344 0 0
11:15 am 11:15 Sunny 88 31 72 22 59 59 WSW 3 6 30 1016 10 16.09344 0 0
11:35 am 11:35 Sunny 90 32 72 22 55 55 W 6 9 30 1016 10 16.09344 0 0
11:55 am 11:55 Sunny 90 32 72 22 55 55 WSW 3 6 30 1016 10 16.09344 0 0
12:15 pm 12:15 Sunny 90 32 72 22 55 55 NW 3 6 30 1016 10 16.09344 0 0
12:35 pm 12:35 Sunny 90 32 72 22 55 55 Calm 30 1016 10 16.09344 0 0
12:55 pm 12:55 Sunny 91 33 70 21 49 49 Calm 30 1016 10 16.09344 0 0
1:15 pm 13:15 Sunny 95 35 68 20 41 41 SSW 3 6 29.97 1015 10 16.09344 0 0
1:35 pm 13:35 Sunny 95 35 64 18 36 36 WSW 12 19 29.97 1015 10 16.09344 0 0
1:55 pm 13:55 Sunny 95 35 64 18 36 36 SW 8 13 29.97 1015 10 16.09344 0 0
2:15 pm 14:15 Sunny 95 35 66 19 39 39 Calm 29.94 1014 10 16.09344 0 0
2:35 pm 14:35 Sunny 95 35 66 19 39 39 WSW 7 11 29.94 1014 10 16.09344 0 0
2:55 pm 14:55 Sunny 97 36 66 19 37 37 WSW 8 13 29.94 1014 10 16.09344 0 0
3:15 pm 15:15 Sunny 97 36 63 17 32 32 WSW 6 9 29.94 1014 10 16.09344 0 0
3:35 pm 15:35 Sunny 97 36 61 16 30 30 WSW 8 13 29.94 1014 10 16.09344 0 0
3:55 pm 15:55 Partly Cloudy 97 36 63 17 32 32 SW 6 9 29.94 1014 10 16.09344 0 0
4:15 pm 16:15 Partly Cloudy 97 36 63 17 32 32 WNW 5 7 29.91 1013 10 16.09344 0 0
4:35 pm 16:35 Partly Cloudy 91 33 72 22 52 52 NW 9 15 29.91 1013 10 16.09344 0 0
5:15 pm 17:15 Mostly Cloudy 88 31 72 22 59 59 NW 14 22 29.94 1014 10 16.09344 0 0
5:35 pm 17:35 Mostly Cloudy with Nearby Thunderstorms 86 30 70 21 59 59 N 9 15 29.94 1014 10 16.09344 0 0
5:55 pm 17:55 Mostly Cloudy 86 30 72 22 62 62 NNE 8 13 29.94 1014 10 16.09344 0 0
6:15 pm 18:15 Sunny 82 28 70 21 66 66 W 13 20 30.03 1017 10 16.09344 0 0
6:35 pm 18:35 Partly Cloudy with Thunderstorms 81 27 70 21 70 70 W 8 13 30 1016 10 16.09344 0 0
6:55 pm 18:55 Mostly Cloudy 77 25 72 22 83 83 NW 7 11 30 1016 7 11.265408 0.01 0.254
7:15 pm 19:15 Mostly Cloudy 77 25 73 23 89 89 NNW 9 15 30 1016 10 16.09344 0.01 0.254
7:35 pm 19:35 Sunny 73 23 73 23 100 100 N 6 9 30 1016 10 16.09344 0.01 0.254
7:55 pm 19:55 Sunny 75 24 72 22 89 89 N 7 11 30 1016 10 16.09344 0.01 0.254
8:15 pm 20:15 Partly Cloudy 75 24 72 22 89 89 W 5 7 30.03 1017 10 16.09344 0 0
8:35 pm 20:35 Clear 73 23 70 21 89 89 W 6 9 30.03 1017 10 16.09344 0 0
8:55 pm 20:55 Partly Cloudy 73 23 70 21 89 89 N 5 7 30.03 1017 10 16.09344 0 0
9:15 pm 21:15 Mostly Cloudy 77 25 70 21 79 79 W 5 7 30.03 1017 10 16.09344 0 0
9:35 pm 21:35 Mostly Cloudy 73 23 70 21 89 89 Calm 30.03 1017 10 16.09344 0 0
9:55 pm 21:55 Partly Cloudy 75 24 70 21 83 83 S 6 9 30.03 1017 10 16.09344 0 0
10:15 pm 22:15 Clear 73 23 70 21 89 89 Calm 30.03 1017 10 16.09344 0 0
10:35 pm 22:35 Clear 73 23 70 21 89 89 Calm 30.03 1017 10 16.09344 0 0
10:55 pm 22:55 Clear 72 22 70 21 94 94 SW 3 6 30.03 1017 10 16.09344 0 0
11:15 pm 23:15 Clear 72 22 70 21 94 94 WNW 3 6 30.06 1018 10 16.09344 0 0
11:35 pm 23:35 Clear 72 22 70 21 94 94 Calm 30.06 1018 10 16.09344 0 0
11:55 pm 23:55 Clear 72 22 70 21 94 94 Calm 30.06 1018 10 16.09344 0 0

Powered by AerisWeather